Tracking 29892 objects as of 21-Nov-2024
HD Live streaming from Space Station
objects crossing your sky now

NOAA 16 DEB

Track NOAA 16 DEB now!
10-day predictions


NORAD ID: 42335
Int'l Code: 2000-055QB
Perigee: 781.9 km
Apogee: 821.7 km
Inclination: 98.6 °
Period: 100.8 minutes
Semi major axis: 7172 km
RCS: Unknown
Launch date: September 21, 2000
Source: United States (US)
Launch site: AIR FORCE WESTERN TEST RANGE (AFWTR)

Note: This is SATELLITE DEBRIS
Your satellite tracking list
Your tracking list is empty




NASA's NSSDC Master Catalog

Two Line Element Set (TLE):
1 42335U 00055QB  24326.09359302  .00007429  00000-0  29324-2 0  9999
2 42335  98.5960  19.5120 0027725  90.1357 270.3001 14.29112942451123
Source of the keplerian elements: AFSPC